Wind_Speed
18 20 23 24 24 23 24 27 27 26 25 24 22 21 17 18 24 22 19 19 19 16 18 21 16 15 21 25 23 25 28 24 11 27 43 39 37 35 32 34 35 34 32
15 19 22 23 24 26 27 28 28 26 27 25 25 22 21 19 21 24 24 22 21 20 19 20 20 17 18 19 19 22 26 25 15 16 38 36 40 37 35 36 35 30 29
17 20 22 22 23 24 26 29 30 29 31 29 27 23 22 18 21 24 20 19 19 17 17 19 19 18 18 18 20 19 19 20 22 18 22 32 40 17 24 24 23 23 22
19 21 23 23 23 24 26 28 29 31 35 34 28 23 22 17 20 25 26 27 21 16 15 16 16 17 19 22 19 19 17 15 13 17 13 16 25 20 9 6 7 12 10
20 23 23 24 25 27 28 25 27 32 35 33 29 25 24 20 22 25 26 27 26 23 17 15 16 15 13 16 17 21 20 18 16 10 9 9 6 6 4 8 9 11 13
21 23 24 27 27 30 26 25 30 32 32 28 26 24 25 20 22 24 25 24 23 24 24 22 17 17 21 23 24 20 18 18 14 12 10 6 9 8 6 6 4 4 1
20 21 23 25 24 27 24 32 35 31 30 26 22 20 20 19 23 25 27 26 22 21 22 24 21 19 21 23 26 25 21 18 15 14 12 8 9 7 10 11 3 1 2
17 21 23 24 23 24 25 31 31 31 29 26 21 22 21 20 22 23 26 26 26 22 21 21 24 24 21 22 25 23 21 20 20 21 18 16 15 15 14 12 11 6 4
18 21 22 23 23 25 27 30 29 27 25 25 24 24 24 23 24 25 27 28 26 26 22 21 20 23 21 23 26 27 28 29 26 25 24 22 19 15 12 13 10 6 2
19 21 21 23 22 22 23 24 25 25 25 24 25 22 27 23 23 25 27 30 26 25 22 23 25 22 22 25 25 26 24 28 31 33 30 26 25 19 14 12 10 9 4
16 16 18 20 21 20 23 24 25 27 27 26 25 26 25 23 26 27 27 28 26 27 24 23 23 26 26 26 25 25 27 29 31 27 26 27 28 24 16 10 11 12 14
13 17 18 19 20 21 25 25 27 28 27 27 26 28 25 27 28 32 30 27 29 28 26 24 25 28 30 31 31 29 27 25 26 26 21 17 15 18 14 12 10 9 11
14 18 18 20 22 23 24 28 28 27 26 26 25 28 28 28 28 30 30 30 28 28 27 29 32 32 31 28 28 27 26 23 22 20 18 18 19 21 18 16 10 7 7
16 16 18 20 23 23 25 27 26 24 24 23 25 25 28 29 29 28 31 31 29 28 29 30 31 30 26 25 26 25 24 21 22 19 19 22 21 20 18 15 11 10 7
15 17 18 20 23 25 26 28 27 27 26 29 29 29 30 30 32 37 37 35 33 32 35 28 24 23 20 20 22 22 24 24 21 21 19 17 17 17 17 15 13 11 5
17 18 19 21 22 26 27 30 26 24 26 26 28 31 34 35 37 36 36 34 34 36 28 22 19 20 21 20 19 20 21 22 22 21 19 17 15 15 14 12 14 10 8
15 18 23 23 22 25 26 26 27 30 27 27 28 31 33 35 36 37 36 35 35 29 19 21 21 19 20 22 21 20 20 21 24 22 20 17 16 15 13 12 14 11 12
16 19 25 25 24 25 26 27 24 27 31 31 32 32 33 33 36 36 34 32 26 23 20 21 22 22 21 22 22 22 21 21 20 20 18 16 16 15 11 13 15 14 16
17 18 24 22 22 24 26 25 22 26 27 29 32 33 32 33 35 30 31 24 25 25 24 24 24 24 24 23 24 21 21 19 20 20 18 16 15 15 13 15 15 17 19
18 17 20 22 24 21 21 23 24 25 28 27 28 30 33 34 33 32 28 27 26 27 27 27 26 26 26 25 24 21 21 18 18 18 17 16 15 14 14 17 19 19 18
16 17 21 22 22 22 23 23 25 26 28 27 29 31 33 32 31 29 30 28 27 28 30 29 28 27 26 25 24 21 20 18 17 16 16 16 13 12 16 19 21 22 24
15 19 22 21 21 21 22 25 24 28 27 28 31 32 32 29 29 30 30 30 31 32 32 31 30 29 28 27 25 23 20 18 17 15 13 12 10 15 20 22 24 24 25
16 22 20 20 20 22 22 23 25 26 28 29 30 31 31 30 31 31 31 32 33 33 33 33 30 30 28 27 25 23 20 17 14 11 11 9 16 21 23 24 26 25 25
18 20 21 21 20 20 21 24 24 28 29 29 30 30 30 31 31 31 32 33 32 33 33 31 30 30 27 24 19 15 11 10 10 9 7 16 21 25 26 26 25 27 28
19 20 19 19 20 21 23 24 23 27 28 30 30 30 31 32 31 32 32 31 32 32 33 31 28 25 21 17 12 9 8 9 7 6 14 22 26 29 28 29 29 28 29
14 13 16 18 19 22 25 22 24 26 28 31 29 29 30 31 31 31 31 31 32 33 31 28 25 20 16 11 6 4 5 7 9 15 23 28 30 30 31 32 31 29 29
Wind_Direction
32 29 24 22 26 29 29 28 27 26 27 31 32 33 27 24 20 23 20 1 358 345 337 325 323 317 291 279 291 293 292 299 337 325 276 265 258 254 252 256 256 257 254
39 25 23 23 23 25 24 24 24 20 21 26 23 26 27 25 12 13 10 359 349 346 352 340 329 319 309 308 303 288 282 300 309 309 301 309 259 260 259 258 252 251 248
22 20 22 22 22 21 19 19 20 20 18 18 15 20 13 17 358 0 358 355 1 353 348 331 325 326 330 311 310 306 305 309 302 267 277 310 305 269 240 244 248 238 224
20 21 22 21 18 14 13 14 14 12 10 10 11 12 9 20 5 1 353 350 353 347 343 341 339 332 313 309 315 308 294 295 296 277 272 260 274 301 351 338 278 255 264
19 18 14 11 12 12 10 10 8 6 6 5 5 7 7 9 2 3 358 352 346 344 346 343 342 337 331 335 344 328 316 303 280 274 284 277 275 263 229 210 186 185 239
13 12 9 8 7 5 8 8 1 359 2 4 6 4 359 357 356 360 358 354 349 344 339 344 334 332 325 323 324 325 346 348 306 295 280 281 280 291 336 11 21 52 216
5 6 3 3 3 1 360 356 356 359 0 4 4 355 350 347 346 349 350 348 346 342 335 334 331 331 338 335 327 322 322 326 342 329 312 307 319 0 336 312 333 359 296
5 1 358 356 355 360 355 357 357 356 358 360 351 348 344 341 340 341 341 338 336 334 334 331 326 326 333 335 336 335 331 322 318 323 317 316 312 312 310 296 303 290 220
2 2 360 356 350 353 352 355 356 353 348 344 343 341 339 334 336 337 338 332 327 328 330 325 326 321 324 323 322 319 317 312 314 314 310 306 303 320 314 306 286 246 294
356 354 353 356 351 349 347 346 344 342 338 336 332 331 331 331 334 333 334 328 322 322 320 320 324 320 315 317 318 317 310 312 317 316 308 301 303 300 307 290 283 272 255
345 345 343 346 343 342 341 341 339 335 332 330 330 330 332 328 328 330 332 329 322 319 317 314 312 319 319 316 311 303 299 308 309 307 303 303 299 295 294 279 268 251 241
338 339 341 343 344 338 336 336 335 334 332 330 328 330 328 329 328 328 330 329 326 317 310 308 309 311 307 305 305 300 300 306 306 306 305 302 300 299 303 287 250 256 255
330 338 342 343 343 340 335 333 330 333 332 329 328 327 324 325 322 325 326 326 321 314 309 310 312 310 307 305 304 306 307 299 299 298 293 291 294 300 296 285 246 220 225
335 339 340 342 342 338 333 331 321 316 318 322 322 319 321 321 319 321 322 322 320 317 314 311 307 306 303 300 305 308 305 294 290 283 283 289 293 294 289 277 243 206 172
338 334 328 331 337 333 331 327 322 320 319 310 312 311 310 314 315 318 319 318 317 316 317 312 309 308 302 293 289 288 292 290 284 285 284 278 285 291 283 269 233 203 169
336 337 333 328 329 336 330 323 325 320 321 314 313 314 308 306 316 322 322 318 317 321 315 309 305 300 296 298 295 290 288 285 287 288 287 282 279 278 263 246 219 211 167
338 337 334 327 323 330 325 322 320 324 323 320 319 318 317 316 321 321 319 322 321 322 309 303 297 293 297 300 295 292 290 288 291 285 284 281 281 279 254 223 206 188 153
334 335 337 330 322 316 323 318 319 321 321 322 321 321 321 322 322 321 325 324 319 317 301 299 301 299 296 299 298 292 287 293 287 280 278 280 282 264 228 202 185 164 151
325 331 336 330 320 314 314 313 317 316 316 315 320 323 326 324 322 324 324 320 315 312 311 305 298 295 296 292 296 294 291 289 287 279 276 275 277 255 219 199 175 157 145
314 319 330 327 324 317 317 320 317 319 320 317 320 323 324 325 325 323 322 318 314 310 309 305 302 297 296 293 296 292 291 291 284 280 279 281 281 249 200 170 154 145 138
312 321 328 323 323 316 316 317 318 319 316 317 319 321 321 320 315 316 317 316 313 309 306 302 302 303 301 297 296 291 289 287 281 279 281 284 270 202 178 157 141 134 128
318 324 325 326 321 314 316 317 317 313 316 320 320 321 322 320 317 317 317 314 314 312 309 308 304 307 302 298 294 289 282 279 279 276 286 279 215 173 152 139 131 128 127
317 322 320 323 321 316 315 317 312 316 319 320 321 321 322 321 320 319 318 318 317 315 316 314 309 308 308 306 302 294 284 277 275 281 284 215 171 151 143 133 132 130 128
315 315 321 321 318 315 311 309 315 320 322 321 322 321 321 320 320 320 320 322 322 321 320 317 316 316 318 317 305 293 273 266 268 270 244 178 150 144 134 129 128 129 129
311 314 312 314 314 314 313 304 318 320 323 322 321 321 321 321 322 323 326 328 329 327 328 332 333 333 330 324 313 286 258 256 248 206 175 159 149 139 132 129 129 127 127
331 328 321 316 313 314 315 308 320 322 323 323 320 320 321 322 323 326 331 332 333 339 344 348 351 351 350 355 7 56 107 130 143 159 157 148 139 132 132 129 129 128 129
Height
839 837 834 830 826 823 818 813 810 807 805 801 800 798 797 787 779 775 774 776 772 765 760 758 753 752 751 756 746 748 753 754 737 731 730 724 720 718 719 721 716 711 711
841 839 835 831 827 821 818 813 809 809 806 801 797 792 788 785 781 777 774 777 777 768 759 757 754 750 751 743 739 744 742 735 729 725 733 727 709 704 705 710 707 702 704
842 839 835 831 827 823 818 814 809 807 803 796 792 792 791 788 782 777 780 778 771 768 763 764 758 753 743 746 744 737 735 728 730 726 722 714 712 681 695 700 698 698 697
842 838 834 831 828 823 818 812 809 806 800 794 792 791 789 787 784 782 777 772 770 768 765 762 759 751 753 751 746 740 736 732 730 728 710 704 710 699 690 694 689 691 698
840 837 834 831 827 823 818 814 811 806 801 797 793 790 788 786 784 780 778 773 768 763 760 758 755 754 752 751 746 741 736 728 723 721 711 704 701 696 693 692 689 682 693
840 837 834 830 826 823 819 816 812 807 802 798 794 792 789 787 785 781 778 774 769 765 760 755 753 751 747 743 739 736 730 724 720 716 711 703 701 699 694 694 689 680 687
841 838 834 831 827 824 819 815 810 806 802 799 796 794 791 788 784 780 776 771 768 764 759 756 753 748 743 739 735 730 725 721 721 718 710 703 697 690 691 695 684 683 688
841 838 834 830 827 824 820 816 811 806 802 799 797 794 790 786 783 779 775 769 765 761 758 754 750 746 742 737 731 727 722 717 716 716 711 699 698 690 690 685 685 686 682
840 837 834 831 826 822 818 814 811 806 802 798 795 791 788 783 780 776 771 767 762 757 754 751 747 742 739 736 730 721 716 714 711 707 704 696 693 686 684 684 682 685 685
838 836 833 830 827 823 819 814 811 807 802 798 794 790 785 781 777 773 768 763 757 752 749 745 742 739 734 731 725 719 712 707 704 697 692 689 686 685 683 684 683 684 685
837 835 832 829 826 822 818 814 810 805 800 795 790 786 781 778 774 770 766 760 755 749 743 737 734 731 727 723 721 716 711 707 700 694 689 686 686 685 683 680 681 681 686
836 833 830 827 824 821 817 813 809 803 797 791 786 781 777 773 769 763 760 756 751 746 739 733 728 724 720 717 713 708 703 699 694 689 685 680 678 679 679 678 674 676 680
835 832 829 825 822 819 815 810 805 800 795 789 783 777 771 767 762 757 753 749 745 740 735 729 723 718 713 709 705 701 698 694 690 687 684 680 678 676 676 676 674 672 675
833 830 827 824 820 817 814 809 803 798 793 787 781 775 769 763 758 754 749 744 739 733 728 722 716 711 707 703 698 694 691 688 686 684 681 678 675 672 670 670 671 672 671
831 828 825 822 818 814 810 805 800 796 792 785 780 775 767 761 756 751 746 740 734 729 722 716 710 706 701 697 693 689 686 683 680 678 675 673 670 668 666 667 669 670 669
829 826 822 818 815 811 805 798 796 791 786 783 778 772 764 758 752 746 740 734 728 723 716 711 705 701 696 692 689 685 681 678 676 673 671 669 667 666 664 665 667 670 672
826 823 820 815 811 807 802 796 788 781 780 775 771 765 759 753 747 741 735 728 721 717 712 707 701 697 692 688 684 680 676 674 671 669 667 665 664 663 663 663 665 668 673
824 821 817 812 809 804 800 795 790 783 773 767 764 759 752 747 741 735 729 722 715 711 707 702 697 692 688 684 680 676 672 669 667 664 663 662 661 661 661 662 664 668 672
821 818 815 811 807 802 798 793 788 782 775 767 758 752 748 741 735 729 724 719 712 706 702 697 692 687 683 679 675 671 668 664 663 661 659 659 658 658 659 660 663 666 670
818 816 812 809 805 800 796 791 785 780 773 765 758 752 744 737 730 723 718 713 707 701 696 690 685 680 675 672 668 665 662 659 657 656 655 655 654 654 656 658 662 666 671
814 812 809 805 802 798 794 789 784 778 771 764 757 751 745 738 729 722 715 709 703 697 690 684 679 674 669 665 661 658 656 654 653 652 651 651 651 652 655 658 662 667 671
811 808 805 802 798 794 790 786 781 775 768 762 753 746 741 734 727 720 713 706 699 692 685 679 672 667 662 658 655 652 650 649 648 648 648 648 649 651 655 658 663 668 674
807 804 800 798 794 790 786 783 778 772 766 759 752 744 736 729 723 716 709 702 694 687 680 674 667 661 656 651 648 646 644 644 644 645 645 646 649 652 656 660 665 671 677
803 800 797 794 791 787 783 778 774 769 763 756 749 741 734 726 719 712 705 698 690 683 676 669 663 656 651 646 642 640 640 640 641 642 643 646 650 654 658 663 669 675 681
798 795 793 790 788 783 779 774 770 765 759 753 746 738 731 723 716 709 702 695 688 680 672 665 658 652 647 642 638 637 637 638 639 641 644 647 651 656 661 667 673 680 686
794 792 790 787 784 780 776 770 766 762 756 750 743 736 728 721 714 707 700 693 686 678 671 663 657 651 646 641 638 637 636 638 640 643 646 650 654 660 665 671 677 684 690